Flag for Canada Weather past 2 weeks in Nelson, British Columbia, Canada

Now
72 °F

Mild.


Feels Like: 77 °F
Forecast: 46 / 61 °F
Wind: 3 mph from Northeast

Location: Nelson

Current Time: Sep 23, 2014 at 1:51:45 PM

Latest Report: Sep 23, 2014 at 1:00 PM


Visibility: N/A

Pressure: 29.88 "Hg

Humidity: 55%

Dew point: 55 °F

Location of NelsonLocation

Historic Weather in Nelson — Graph

°F

Nelson temperature yesterday

Maximum temperature yesterday: 78 °F (at 4:00 PM)
Minimum temperature yesterday: 50 °F (at 6:00 AM)
Average temperature yesterday: 61 °F

Past Weeks' High & Low Weather Summary

 TemperatureHumidityPressure
High80 °F (Sep 20, 5:00 PM)99% (Sep 18, 10:00 PM)30.57 "Hg (Sep 18, 10:00 PM)
Low36 °F (Sep 11, 7:00 AM)24% (Sep 8, 5:00 PM)29.64 "Hg (Sep 8, 5:00 PM)
Average58 °F64%30.02 "Hg
* Reported Sep 8 12:00 Noon — Sep 23 12:00 Noon, Nelson, Weather by CustomWeather, © 2014

Note: Actual official high and low records may vary slightly from our data, if they occured in-between our weather recording intervals... More about our weather records

Advertising

Nelson weather history for previous 24 hours

 ConditionsComfort  
Time TempWeatherWind HumidityBarometerVisibility
12:00 PM
Sep 23
72 °FMild.2 mph56%29.89 "HgN/A
11:00 AM71 °FMild.3 mph57%29.91 "HgN/A
10:00 AM65 °FMild.2 mph68%29.93 "HgN/A
9:00 AM64 °FMild.1 mph70%29.95 "HgN/A
8:00 AM56 °FCool.2 mph87%29.95 "HgN/A
7:00 AM57 °FCool.2 mph87%29.94 "HgN/A
6:00 AM59 °FCool.7 mph81%29.92 "HgN/A
5:00 AM59 °FCool.7 mph84%29.90 "HgN/A
4:00 AM59 °FCool.8 mph82%29.91 "HgN/A
3:00 AM58 °FCool.5 mph82%29.91 "HgN/A
2:00 AM58 °FCool.6 mph86%29.92 "HgN/A
12:00 AM54 °FCool.2 mph97%29.91 "HgN/A
11:00 PM
Sep 22
57 °FCool.1 mph90%29.91 "HgN/A
10:00 PM61 °FCool.3 mph84%29.90 "HgN/A
9:00 PM63 °FMild.2 mph81%29.90 "HgN/A
8:00 PM64 °FMild.3 mph78%29.92 "HgN/A
7:00 PM68 °FMild.5 mph62%29.86 "HgN/A
6:00 PM69 °FMild.6 mph62%29.84 "HgN/A
5:00 PM72 °FMild.2 mph60%29.85 "HgN/A
4:00 PM78 °FPleasantly warm.3 mph40%29.87 "HgN/A
3:00 PM71 °FMild.2 mph52%29.87 "HgN/A
2:00 PM73 °FMild.6 mph44%29.87 "HgN/A
1:00 PM74 °FMild.6 mph40%29.88 "HgN/A
Weather by CustomWeather, © 2014

See weather overviewHow to use our weather pages